Date String (YYYY-MM-DD hh:mm:ss) UTC,Instrument flags,Ambient pressure (hPa),Sample flow (lpm),Bypass flow (lpm),Sample temperature (°C),Ambient temperature (°C),ASC tube jacket temperature (°C),LED temperature (°C),Box temperature (°C),Sample RH (%),Span deviation,Mass concentration (μg/m³),Mass concentration (μg/m³),Mass concentration (μg/m³)
DateTimeUTC,F1_M11,P_M11,Q1_M11,Q2_M11,T1_M11,T2_M11,T3_M11,T4_M11,T5_M11,U1_M11,ZSPAN_M11,X0_M11,X2_M11,X1_M11
2022-09-12 01:00:00,,0831.1,5.01,0.00,30.1,28.6,00.0,38.8,31.9,15.8,0001.8,0010.15,0007.78,0007.53
2022-09-12 01:01:00,,0831.0,4.98,0.00,30.1,28.7,00.0,38.8,32.0,15.9,0002.3,0010.44,0007.77,0007.52
2022-09-12 01:02:00,,0831.0,5.01,0.00,30.1,28.8,00.0,38.8,32.0,15.9,0002.2,0010.92,0007.75,0007.51
2022-09-12 01:03:00,,0831.0,4.99,0.00,30.1,28.9,00.0,38.8,32.0,15.9,0002.0,0011.36,0007.72,0007.50
2022-09-12 01:04:00,,0831.0,5.01,0.00,30.2,29.0,00.0,38.8,32.1,15.8,0001.7,0011.86,0007.71,0007.50
2022-09-12 01:05:00,,0830.9,4.99,0.00,30.2,29.1,00.0,38.8,32.1,16.2,0001.5,0011.98,0007.74,0007.51
2022-09-12 01:06:00,,0830.9,5.00,0.00,30.2,29.1,00.0,38.9,32.2,16.5,0001.4,0011.95,0007.75,0007.52
2022-09-12 01:07:00,,0830.9,4.99,0.00,30.3,29.2,00.0,38.9,32.2,16.7,0001.7,0011.99,0007.78,0007.54
2022-09-12 01:08:00,,0830.9,5.01,0.00,30.3,29.2,00.0,38.9,32.2,16.6,0001.8,0012.54,0007.81,0007.56
2022-09-12 01:09:00,,0830.9,4.98,0.00,30.3,29.3,00.0,38.9,32.2,16.5,0001.9,0012.63,0007.82,0007.59
2022-09-12 01:10:00,,0830.9,5.01,0.00,30.3,29.3,00.0,39.0,32.2,16.5,0002.0,0012.70,0007.86,0007.61
2022-09-12 01:11:00,,0830.9,4.98,0.00,30.4,29.3,00.0,39.0,32.3,16.6,0002.1,0012.65,0007.90,0007.65
2022-09-12 01:12:00,,0831.0,5.02,0.00,30.4,29.3,00.0,39.0,32.3,16.5,0001.9,0012.52,0007.92,0007.68
2022-09-12 01:13:00,,0831.0,5.01,0.00,30.4,28.9,00.0,39.0,32.3,16.4,0002.1,0012.13,0007.98,0007.71
2022-09-12 01:14:00,,0831.0,4.98,0.00,30.4,27.5,00.0,39.0,32.2,16.1,0002.1,0011.63,0008.02,0007.75
2022-09-12 01:15:00,,0831.0,5.00,0.00,30.3,27.1,00.0,38.9,32.1,16.0,0001.9,0011.20,0008.04,0007.76
2022-09-12 01:16:00,,0831.0,5.01,0.00,30.3,27.2,00.0,38.9,31.9,16.2,0001.9,0011.14,0008.05,0007.77
2022-09-12 01:17:00,,0831.0,5.01,0.00,30.2,27.5,00.0,38.9,31.9,16.2,0002.4,0011.15,0008.06,0007.78
2022-09-12 01:18:00,,0830.9,4.99,0.00,30.2,27.8,00.0,38.9,31.9,16.2,0002.6,0011.13,0008.06,0007.78
2022-09-12 01:19:00,,0830.9,5.00,0.00,30.1,28.1,00.0,38.9,31.9,16.3,0002.4,0010.62,0008.06,0007.78
2022-09-12 01:20:00,,0830.9,4.99,0.00,30.1,28.3,00.0,38.9,32.0,16.5,0002.3,0010.48,0008.07,0007.79
2022-09-12 01:21:00,,0831.0,5.00,0.00,30.1,28.4,00.0,38.9,32.0,16.6,0002.5,0010.45,0008.06,0007.80
2022-09-12 01:22:00,,0831.0,5.00,0.00,30.1,28.5,00.0,38.9,32.0,16.7,0002.2,0010.43,0008.04,0007.79
2022-09-12 01:23:00,,0831.0,5.01,0.00,30.1,28.7,00.0,38.9,32.0,17.2,0002.2,0010.27,0008.03,0007.78
2022-09-12 01:24:00,,0831.0,5.01,0.00,30.1,28.7,00.0,38.9,32.0,18.4,0001.9,0010.16,0008.01,0007.77
2022-09-12 01:25:00,,0831.0,4.98,0.00,30.2,28.8,00.0,38.9,32.0,19.4,0001.9,0010.19,0008.03,0007.78
2022-09-12 01:26:00,,0831.0,5.00,0.00,30.2,28.8,00.0,38.9,32.0,18.5,0002.0,0010.24,0008.03,0007.79
2022-09-12 01:27:00,,0831.0,5.01,0.00,30.1,28.8,00.0,38.9,32.0,18.8,0002.3,0010.33,0008.05,0007.81
2022-09-12 01:28:00,,0831.0,5.01,0.00,30.1,28.8,00.0,38.9,32.0,18.5,0002.0,0010.48,0008.09,0007.83
2022-09-12 01:29:00,,0831.0,4.99,0.00,30.2,28.9,00.0,38.9,32.0,17.8,0001.8,0010.63,0008.12,0007.84
2022-09-12 01:30:00,,0831.0,5.01,0.00,30.2,28.9,00.0,38.9,32.0,17.7,0002.0,0010.67,0008.15,0007.87
2022-09-12 01:31:00,,0831.0,5.01,0.00,30.1,28.8,00.0,38.9,32.0,17.7,0001.7,0010.87,0008.20,0007.90
2022-09-12 01:32:00,,0831.0,5.00,0.00,30.1,28.9,00.0,38.9,32.0,17.8,0001.4,0011.03,0008.25,0007.93
2022-09-12 01:33:00,,0831.0,4.98,0.00,30.2,28.9,00.0,38.9,32.0,18.1,0001.9,0011.81,0008.29,0007.96
2022-09-12 01:34:00,,0831.1,5.00,0.00,30.2,29.0,00.0,38.9,32.0,18.2,0001.8,0011.85,0008.33,0007.98
2022-09-12 01:35:00,,0831.1,4.99,0.00,30.2,29.0,00.0,38.9,32.0,18.2,0001.9,0011.82,0008.33,0008.01
2022-09-12 01:36:00,,0831.0,5.00,0.00,30.2,29.0,00.0,38.9,32.0,18.2,0002.1,0011.77,0008.32,0008.00
2022-09-12 01:37:00,,0831.1,5.00,0.00,30.2,28.6,00.0,38.9,32.0,18.0,0002.2,0011.81,0008.36,0008.01
2022-09-12 01:38:00,,0831.1,4.98,0.00,30.2,27.2,00.0,38.9,31.9,18.0,0002.2,0011.72,0008.37,0008.01
2022-09-12 01:39:00,,0831.0,5.01,0.00,30.1,26.8,00.0,38.8,31.9,18.3,0001.7,0012.10,0008.36,0008.02
2022-09-12 01:40:00,,0831.0,4.99,0.00,30.0,26.9,00.0,38.8,31.6,18.3,0001.7,0012.46,0008.39,0008.04
2022-09-12 01:41:00,,0831.0,5.00,0.00,30.0,27.2,00.0,38.8,31.6,18.2,0001.8,0012.45,0008.38,0008.04
2022-09-12 01:42:00,,0831.0,5.00,0.00,29.9,27.5,00.0,38.7,31.6,18.3,0001.9,0012.34,0008.37,0008.03
2022-09-12 01:43:00,,0831.0,5.00,0.00,29.9,27.7,00.0,38.7,31.7,18.1,0002.1,0012.29,0008.37,0008.02
2022-09-12 01:44:00,,0831.0,5.00,0.00,29.9,27.9,00.0,38.7,31.6,18.1,0002.1,0011.55,0008.34,0007.99
2022-09-12 01:45:00,,0831.0,5.00,0.00,29.9,28.0,00.0,38.7,31.6,18.2,0002.0,0011.61,0008.36,0007.99
2022-09-12 01:46:00,,0831.1,5.02,0.00,29.8,28.1,00.0,38.7,31.6,18.1,0001.7,0011.72,0008.39,0007.99
2022-09-12 01:47:00,,0831.0,5.00,0.00,29.8,28.2,00.0,38.7,31.6,18.1,0001.7,0011.75,0008.39,0008.00
2022-09-12 01:48:00,,0831.0,5.01,0.00,29.8,28.3,00.0,38.7,31.6,18.4,0002.1,0011.74,0008.38,0008.01
2022-09-12 01:49:00,,0831.0,4.98,0.00,29.8,28.4,00.0,38.7,31.6,18.6,0002.0,0012.02,0008.40,0008.02
2022-09-12 01:50:00,,0831.0,5.00,0.00,29.8,28.4,00.0,38.7,31.6,19.0,0001.7,0011.66,0008.44,0008.02
2022-09-12 01:51:00,,0831.0,5.01,0.00,29.8,28.5,00.0,38.7,31.6,19.2,0001.7,0011.20,0008.43,0008.02
2022-09-12 01:52:00,,0831.0,4.99,0.00,29.9,28.5,00.0,38.7,31.7,19.5,0001.7,0011.26,0008.44,0008.03
2022-09-12 01:53:00,,0831.0,4.99,0.00,29.9,28.5,00.0,38.7,31.7,19.7,0001.9,0011.31,0008.45,0008.03
2022-09-12 01:54:00,,0831.0,4.99,0.00,29.9,28.5,00.0,38.7,31.7,19.8,0001.8,0011.60,0008.44,0008.04
2022-09-12 01:55:00,,0831.0,5.01,0.00,29.9,28.5,00.0,38.7,31.6,19.8,0001.5,0011.82,0008.49,0008.08
2022-09-12 01:56:00,,0831.1,5.00,0.00,29.9,28.6,00.0,38.7,31.7,19.8,0001.5,0011.88,0008.52,0008.09
2022-09-12 01:57:00,,0831.1,4.99,0.00,29.9,28.6,00.0,38.7,31.7,19.7,0001.6,0011.92,0008.53,0008.10
2022-09-12 01:58:00,,0831.1,5.00,0.00,29.9,28.7,00.0,38.7,31.7,19.8,0001.2,0012.00,0008.55,0008.12
2022-09-12 01:59:00,,0831.1,4.99,0.00,29.9,28.6,00.0,38.7,31.7,19.9,0000.8,0012.15,0008.58,0008.12
